Weather History for Spokane Felts, WA

Change the Weather History Date:

Sunday, December 16, 2012

  Actual Average Record
Temperature  
Mean Temperature 33 °F 29 °F  
Max Temperature 35 °F 35 °F 51 °F (1999)
Min Temperature 30 °F 23 °F 2 °F (2008)
Degree Days  
Heating Degree Days 32 36  
Month to date heating degree days 408 555  
Since 1 July heating degree days 1681 2129  
Cooling Degree Days 0 0  
Month to date cooling degree days 0 0  
Year to date cooling degree days 509 406  
Moisture  
Dew Point 28 °F    
Average Humidity 80    
Maximum Humidity 89    
Minimum Humidity 70    
Precipitation  
Precipitation 0.15 in 0.08 in 0.52 in (2002)
Month to date precipitation 0.98 1.34  
Year to date precipitation 19.74 16.56  
Sea Level Pressure  
Sea Level Pressure 29.54 in    
Wind  
Wind Speed 7 mph (SSE)    
Max Wind Speed 18 mph    
Max Gust Speed 23 mph    
Visibility 5 miles    
Events Fog , Snow    
T = Trace of Precipitation, MM = Missing Value Source: NWS Daily Summary

Daily Weather History Graph

Daily Weather History Graph

Search for Another Location

Airport:

Trip Planner

Search our weather history database for the weather conditions in past years. The results will help you decide how hot, cold, wet, or windy it might be!

Date:

Astronomy

Dec. 16, 2012 Rise Set
Actual Time 7:32 AM PST 3:58 PM PST
Civil Twilight 6:56 AM PST 4:34 PM PST
Nautical Twilight 6:16 AM PST 5:13 PM PST
Astronomical Twilight 5:39 AM PST 5:51 PM PST
Moon 9:55 AM PST (12/16) 8:33 PM PST (12/16)
Length of Visible Light 9h 38m
Length of Day
8h 25m
Waxing Crescent, 17% of the Moon is Illuminated
Dec 16
Waxing Crescent
Dec 19
First Quarter
Dec 28
Full
Jan 4
Last Quarter
Jan 11
New

Hourly Weather History & Observations

Time (PST) Temp. Windchill Dew Point Humidity Pressure Visibility Wind Dir Wind Speed Gust Speed Precip Events Conditions
12:01 AM 33.8 °F - 30.2 °F 87% 29.58 in 1.0 mi Calm Calm - 0.00 in Snow Light Snow
12:21 AM 33.8 °F - 30.2 °F 87% 29.58 in 1.0 mi Calm Calm - 0.01 in Snow Light Snow
12:40 AM 33.8 °F 30.8 °F 30.2 °F 87% 29.58 in 3.0 mi SW 3.5 mph - 0.01 in Snow Light Snow
12:53 AM 33.1 °F 27.7 °F 28.9 °F 85% 29.62 in 4.0 mi SW 5.8 mph - 0.02 in Snow Light Snow
1:04 AM 33.8 °F 28.6 °F 28.4 °F 81% 29.59 in 3.0 mi WSW 5.8 mph - 0.00 in Snow Light Snow
1:53 AM 33.1 °F 24.4 °F 28.9 °F 85% 29.65 in 9.0 mi WSW 11.5 mph - 0.01 in   Overcast
2:28 AM 32.0 °F 23.0 °F 28.4 °F 87% 29.63 in 3.0 mi SW 11.5 mph - 0.01 in Snow Light Snow
2:37 AM 32.0 °F 22.5 °F 28.4 °F 87% 29.64 in 6.0 mi SW 12.7 mph - 0.01 in   Overcast
2:53 AM 32.0 °F 22.5 °F 28.0 °F 85% 29.68 in 7.0 mi WSW 12.7 mph - 0.01 in   Overcast
3:53 AM 32.0 °F 22.5 °F 26.1 °F 79% 29.70 in 10.0 mi SW 12.7 mph - N/A   Overcast
4:53 AM 30.9 °F 22.8 °F 25.0 °F 79% 29.73 in 10.0 mi SW 9.2 mph - N/A   Overcast
5:53 AM 30.9 °F 22.8 °F 25.0 °F 79% 29.75 in 10.0 mi WSW 9.2 mph - N/A   Overcast
6:53 AM 30.9 °F 23.5 °F 25.0 °F 79% 29.76 in 10.0 mi SW 8.1 mph - N/A   Overcast
7:53 AM 30.9 °F 24.3 °F 25.0 °F 79% 29.78 in 10.0 mi SW 6.9 mph - N/A   Overcast
8:20 AM 30.2 °F 25.4 °F 24.8 °F 80% 29.74 in 10.0 mi South 4.6 mph - N/A   Overcast
8:34 AM 30.2 °F 22.6 °F 24.8 °F 80% 29.75 in 10.0 mi SW 8.1 mph - N/A   Overcast
8:53 AM 30.9 °F 23.5 °F 25.0 °F 79% 29.79 in 10.0 mi SSW 8.1 mph - N/A   Overcast
9:53 AM 32.0 °F - 26.1 °F 79% 29.80 in 10.0 mi Calm Calm - 0.01 in   Overcast
10:53 AM 33.1 °F 28.7 °F 27.0 °F 78% 29.79 in 10.0 mi SSW 4.6 mph - 0.04 in   Overcast
11:53 AM 34.0 °F 29.8 °F 27.0 °F 75% 29.77 in 10.0 mi SSW 4.6 mph - N/A   Overcast
12:53 PM 35.1 °F 32.2 °F 27.0 °F 72% 29.75 in 10.0 mi SW 3.5 mph - N/A   Overcast
1:53 PM 35.1 °F - 27.0 °F 72% 29.73 in 10.0 mi Calm Calm - 0.00 in   Overcast
2:53 PM 35.1 °F 31.0 °F 28.0 °F 76% 29.70 in 10.0 mi East 4.6 mph - N/A   Overcast
3:27 PM 33.8 °F 29.6 °F 28.4 °F 81% 29.65 in 2.0 mi ESE 4.6 mph - 0.00 in Snow Light Snow
3:53 PM 34.0 °F - 28.9 °F 82% 29.68 in 2.0 mi Calm Calm - 0.00 in Snow Light Snow
4:53 PM 34.0 °F 29.8 °F 28.9 °F 82% 29.64 in 2.0 mi ESE 4.6 mph - 0.01 in Snow Light Snow
5:53 PM 34.0 °F 31.0 °F 28.9 °F 82% 29.58 in 2.0 mi Variable 3.5 mph - 0.00 in Snow Light Snow
6:02 PM 33.8 °F 30.8 °F 28.4 °F 81% 29.54 in 5.0 mi ESE 3.5 mph - 0.00 in Snow Light Snow
6:53 PM 34.0 °F 28.0 °F 28.9 °F 82% 29.55 in 2.0 mi ESE 6.9 mph - 0.00 in Snow Light Snow
7:00 PM 33.8 °F 29.6 °F 28.4 °F 81% 29.50 in 1.5 mi Variable 4.6 mph - 0.01 in Snow Light Snow
7:53 PM 34.0 °F 26.0 °F 28.9 °F 82% 29.48 in 1.5 mi East 10.4 mph - 0.02 in Snow Light Snow
7:55 PM 33.8 °F 25.8 °F 28.4 °F 81% 29.44 in 2.5 mi East 10.4 mph - 0.00 in Snow Light Snow
8:06 PM 33.8 °F 27.0 °F 28.4 °F 81% 29.43 in 4.0 mi East 8.1 mph - 0.00 in Snow Light Snow
8:31 PM 33.8 °F 27.0 °F 28.4 °F 81% 29.39 in 2.0 mi East 8.1 mph - 0.00 in Snow Light Snow
8:38 PM 33.8 °F 26.4 °F 28.4 °F 81% 29.38 in 1.5 mi East 9.2 mph - 0.00 in Snow Light Snow
8:53 PM 33.1 °F 25.5 °F 28.9 °F 85% 29.40 in 1.8 mi East 9.2 mph - 0.00 in Snow Light Snow
9:03 PM 33.8 °F 25.3 °F 28.4 °F 81% 29.34 in 2.5 mi East 11.5 mph - 0.00 in Snow Light Snow
9:25 PM 33.8 °F 25.8 °F 28.4 °F 81% 29.31 in 5.0 mi East 10.4 mph - 0.01 in Snow Light Snow
9:44 PM 33.8 °F 26.4 °F 28.4 °F 81% 29.30 in 2.5 mi East 9.2 mph - N/A Snow Light Snow
9:53 PM 34.0 °F 27.2 °F 28.9 °F 82% 29.34 in 1.2 mi East 8.1 mph - 0.01 in Snow Light Snow
10:22 PM 33.8 °F 27.0 °F 30.2 °F 87% 29.26 in 1.2 mi East 8.1 mph - 0.00 in Snow Light Snow
10:42 PM 33.8 °F 27.0 °F 30.2 °F 87% 29.25 in 0.8 mi East 8.1 mph - 0.01 in Snow Light Snow
10:53 PM 33.1 °F 25.5 °F 30.0 °F 89% 29.28 in 0.8 mi East 9.2 mph - 0.01 in Snow Light Snow
11:02 PM 33.8 °F 27.0 °F 30.2 °F 87% 29.24 in 0.5 mi East 8.1 mph - 0.00 in Fog , Snow Snow
11:11 PM 33.8 °F 26.4 °F 30.2 °F 87% 29.23 in 0.8 mi East 9.2 mph - 0.00 in Snow Light Snow
11:32 PM 33.8 °F 28.6 °F 30.2 °F 87% 29.21 in 1.0 mi Variable 5.8 mph - 0.00 in Snow Light Snow
11:51 PM 33.8 °F 29.6 °F 30.2 °F 87% 29.22 in 2.5 mi NNW 4.6 mph - 0.01 in Snow Light Snow
11:53 PM 34.0 °F 28.8 °F 30.9 °F 89% 29.25 in 2.5 mi North 5.8 mph - 0.01 in Snow Light Snow